When you browse on this site, cookies collect data to enhance your experience and personalize the content and advertising you see.
Visit our Privacy Policy to learn more. By continuing to use the site, you agree to this use of cookies and data.
  • In Hungary
  • List of Countries
  • For 7 days
  • Water Temperature
  • Satellite Maps
  • Weather Map
  • News
  • Weather Widgets
  • user-avatar
    Login

    Hourly Weather Dessalines

    Today, 20 February, Wednesday

    Time Temperature Precipitation Wind Pressure Humidity
    00:00 +24°C° 0 mm 2 mps 755 mmHg 70%
    01:00 +24°C° 0 mm 2 mps 755 mmHg 70%
    02:00 +23°C° 0 mm 2 mps 754 mmHg 72%
    03:00 +23°C° 0 mm 2 mps 754 mmHg 74%
    04:00 +23°C° 0 mm 2 mps 754 mmHg 76%
    05:00 +23°C° 0 mm 2 mps 754 mmHg 75%
    06:00 +23°C° 0 mm 2 mps 754 mmHg 74%
    07:00 +23°C° 0 mm 2 mps 754 mmHg 74%
    08:00 +26°C° 0 mm 2 mps 755 mmHg 63%
    09:00 +28°C° 0 mm 2 mps 755 mmHg 53%
    10:00 +31°C° 0 mm 2 mps 756 mmHg 42%
    11:00 +32°C° 0 mm 2 mps 755 mmHg 38%
    12:00 +35°C° 0 mm 2 mps 755 mmHg 33%
    13:00 +36°C° 0 mm 2 mps 754 mmHg 28%
    14:00 +36°C° 0 mm 2 mps 754 mmHg 30%
    15:00 +35°C° 0 mm 3 mps 753 mmHg 31%
    16:00 +35°C° 0 mm 3 mps 753 mmHg 32%
    17:00 +33°C° 0 mm 3 mps 753 mmHg 43%
    18:00 +29°C° 0 mm 3 mps 753 mmHg 54%
    19:00 +27°C° 0 mm 2 mps 754 mmHg 65%
    20:00 +27°C° 0 mm 2 mps 754 mmHg 69%
    21:00 +26°C° 0 mm 2 mps 755 mmHg 72%
    22:00 +26°C° 0 mm 1 mps 755 mmHg 76%
    23:00 +25°C° 0 mm 1 mps 755 mmHg 77%

    Tomorrow, 21 February, Thursday

    Time Temperature Precipitation Wind Pressure Humidity
    00:00 +25°C° 0 mm 1 mps 755 mmHg 77%
    01:00 +24°C° 0 mm 2 mps 754 mmHg 77%
    02:00 +24°C° 0 mm 2 mps 754 mmHg 78%
    03:00 +24°C° 0 mm 2 mps 754 mmHg 80%
    04:00 +23°C° 0 mm 2 mps 753 mmHg 81%
    05:00 +23°C° 0 mm 2 mps 754 mmHg 81%
    06:00 +24°C° 0 mm 2 mps 754 mmHg 80%
    07:00 +24°C° 0 mm 2 mps 755 mmHg 80%
    08:00 +26°C° 0 mm 2 mps 755 mmHg 70%
    09:00 +28°C° 0 mm 2 mps 755 mmHg 60%
    10:00 +31°C° 0 mm 2 mps 756 mmHg 51%
    11:00 +32°C° 0 mm 2 mps 755 mmHg 45%
    12:00 +35°C° 0 mm 2 mps 755 mmHg 40%
    13:00 +36°C° 0 mm 2 mps 754 mmHg 35%
    14:00 +36°C° 0 mm 3 mps 754 mmHg 36%
    15:00 +35°C° 0 mm 3 mps 753 mmHg 36%
    16:00 +35°C° 0 mm 4 mps 753 mmHg 37%
    17:00 +33°C° 0 mm 3 mps 753 mmHg 46%
    18:00 +30°C° 0 mm 2 mps 754 mmHg 56%
    19:00 +28°C° 0 mm 2 mps 754 mmHg 65%
    20:00 +27°C° 0 mm 2 mps 755 mmHg 67%
    21:00 +27°C° 0 mm 1 mps 755 mmHg 69%
    22:00 +26°C° 0 mm 1 mps 755 mmHg 71%
    23:00 +26°C° 0 mm 1 mps 755 mmHg 70%

    Day after tomorrow, 22 February, Friday

    Time Temperature Precipitation Wind Pressure Humidity
    00:00 +25°C° 0 mm 2 mps 755 mmHg 69%
    01:00 +25°C° 0 mm 2 mps 755 mmHg 68%
    02:00 +24°C° 0 mm 2 mps 754 mmHg 70%
    03:00 +24°C° 0 mm 2 mps 754 mmHg 72%
    04:00 +23°C° 0 mm 2 mps 754 mmHg 73%
    05:00 +24°C° 0 mm 2 mps 754 mmHg 73%
    06:00 +24°C° 0 mm 2 mps 755 mmHg 73%
    07:00 +24°C° 0 mm 2 mps 755 mmHg 72%
    08:00 +27°C° 0 mm 2 mps 756 mmHg 63%
    09:00 +29°C° 0 mm 2 mps 756 mmHg 53%
    10:00 +32°C° 0 mm 1 mps 757 mmHg 43%
    11:00 +34°C° 0 mm 2 mps 756 mmHg 37%
    12:00 +36°C° 0 mm 2 mps 756 mmHg 32%
    13:00 +38°C° 0 mm 2 mps 755 mmHg 26%
    14:00 +37°C° 0 mm 3 mps 755 mmHg 29%
    15:00 +37°C° 0 mm 3 mps 754 mmHg 31%
    16:00 +36°C° 0 mm 4 mps 754 mmHg 33%
    17:00 +34°C° 0 mm 3 mps 754 mmHg 43%
    18:00 +31°C° 0 mm 2 mps 755 mmHg 53%
    19:00 +29°C° 0 mm 2 mps 755 mmHg 63%
    20:00 +28°C° 0 mm 1 mps 755 mmHg 66%
    21:00 +28°C° 0 mm 1 mps 756 mmHg 68%
    22:00 +27°C° 0 mm 1 mps 756 mmHg 71%
    23:00 +27°C° 0 mm 1 mps 756 mmHg 72%

    23 February, Saturday

    Time Temperature Precipitation Wind Pressure Humidity
    00:00 +26°C° 0 mm 2 mps 756 mmHg 73%
    01:00 +26°C° 0 mm 2 mps 755 mmHg 74%
    02:00 +25°C° 0 mm 2 mps 755 mmHg 76%
    03:00 +25°C° 0 mm 2 mps 755 mmHg 79%
    04:00 +24°C° 0 mm 2 mps 755 mmHg 82%
    05:00 +24°C° 0 mm 2 mps 755 mmHg 82%
    06:00 +25°C° 0 mm 2 mps 756 mmHg 83%
    07:00 +25°C° 0 mm 2 mps 756 mmHg 83%
    08:00 +27°C° 0 mm 2 mps 756 mmHg 72%
    09:00 +29°C° 0 mm 2 mps 757 mmHg 62%
    10:00 +32°C° 0 mm 2 mps 757 mmHg 51%
    11:00 +34°C° 0 mm 2 mps 756 mmHg 45%
    12:00 +36°C° 0 mm 3 mps 755 mmHg 40%
    13:00 +37°C° 0 mm 3 mps 755 mmHg 34%
    14:00 +36°C° 0 mm 3 mps 754 mmHg 37%
    15:00 +36°C° 0 mm 4 mps 754 mmHg 40%
    16:00 +35°C° 0 mm 5 mps 754 mmHg 42%
    17:00 +33°C° 0 mm 4 mps 754 mmHg 51%
    18:00 +30°C° 0 mm 3 mps 754 mmHg 60%
    19:00 +28°C° 0 mm 2 mps 755 mmHg 68%
    20:00 +27°C° 0 mm 2 mps 755 mmHg 71%
    21:00 +27°C° 0 mm 2 mps 756 mmHg 75%
    22:00 +26°C° 0 mm 2 mps 756 mmHg 78%
    23:00 +26°C° 0 mm 2 mps 756 mmHg 78%

    24 February, Sunday

    Time Temperature Precipitation Wind Pressure Humidity
    00:00 +25°C° 0 mm 2 mps 755 mmHg 78%
    01:00 +25°C° 0 mm 2 mps 755 mmHg 78%
    02:00 +25°C° 0 mm 2 mps 755 mmHg 79%
    03:00 +24°C° 0 mm 2 mps 754 mmHg 79%
    04:00 +24°C° 0 mm 2 mps 754 mmHg 80%
    05:00 +24°C° 0 mm 2 mps 755 mmHg 78%
    06:00 +24°C° 0 mm 2 mps 755 mmHg 77%
    07:00 +24°C° 0 mm 2 mps 756 mmHg 75%
    08:00 +27°C° 0 mm 2 mps 756 mmHg 66%
    09:00 +29°C° 0 mm 1 mps 756 mmHg 57%
    10:00 +32°C° 0 mm 1 mps 756 mmHg 47%
    11:00 +33°C° 0 mm 1 mps 756 mmHg 42%
    12:00 +36°C° 0 mm 2 mps 755 mmHg 37%
    13:00 +37°C° 0 mm 2 mps 754 mmHg 32%
    14:00 +36°C° 0 mm 3 mps 754 mmHg 36%
    15:00 +35°C° 0 mm 4 mps 754 mmHg 39%
    16:00 +35°C° 0 mm 4 mps 753 mmHg 43%
    17:00 +33°C° 0 mm 4 mps 754 mmHg 52%
    18:00 +30°C° 0 mm 3 mps 754 mmHg 61%
    19:00 +28°C° 0 mm 2 mps 755 mmHg 70%
    20:00 +28°C° 0 mm 2 mps 755 mmHg 74%
    21:00 +27°C° 0 mm 1 mps 755 mmHg 77%
    22:00 +26°C° 0 mm 1 mps 755 mmHg 81%
    23:00 +26°C° 0 mm 1 mps 755 mmHg 82%

    25 February, Monday

    Time Temperature Precipitation Wind Pressure Humidity
    00:00 +25°C° 0 mm 1 mps 754 mmHg 83%
    01:00 +25°C° 0 mm 1 mps 754 mmHg 84%
    02:00 +24°C° 0 mm 1 mps 754 mmHg 84%
    03:00 +24°C° 0 mm 2 mps 754 mmHg 84%
    04:00 +24°C° 0 mm 2 mps 754 mmHg 85%
    05:00 +24°C° 0 mm 2 mps 754 mmHg 84%
    06:00 +24°C° 0 mm 2 mps 755 mmHg 82%
    07:00 +24°C° 0 mm 2 mps 755 mmHg 81%
    08:00 +26°C° 0 mm 2 mps 755 mmHg 67%
    09:00 +29°C° 0 mm 2 mps 756 mmHg 53%
    10:00 +31°C° 0 mm 1 mps 756 mmHg 38%
    11:00 +34°C° 0 mm 2 mps 755 mmHg 34%
    12:00 +35°C° 0 mm 2 mps 755 mmHg 30%
    13:00 +37°C° 0 mm 3 mps 754 mmHg 26%
    14:00 +36°C° 0 mm 3 mps 754 mmHg 30%
    15:00 +35°C° 0 mm 4 mps 754 mmHg 34%
    16:00 +35°C° 0 mm 4 mps 753 mmHg 38%
    17:00 +32°C° 0 mm 4 mps 754 mmHg 49%
    18:00 +29°C° 0 mm 3 mps 754 mmHg 60%
    19:00 +27°C° 0 mm 2 mps 755 mmHg 71%
    20:00 +27°C° 0 mm 2 mps 755 mmHg 75%
    21:00 +26°C° 0 mm 2 mps 755 mmHg 79%
    22:00 +25°C° 0 mm 2 mps 755 mmHg 83%
    23:00 +25°C° 0 mm 2 mps 755 mmHg 83%
    Show more